Weather Roundup
Issued by NWS Chicago, IL

Home | Current Version | Previous Version | Graphics & Text | Print | Product List | Glossary Off
Versions: 1 2 3 4 5 6 7 8 9 10 11 12 13 14 15 16 17 18 19 20 21 22 23 24 25 26 27 28 29 30 31 32 33 34 35 36 37 38 39 40 41 42 43 44 45 46 47 48 49 50

000
NZUS59 KLOT 272210
HRRLOT

CHICAGO AREA WEATHER ROUNDUP
NATIONAL WEATHER SERVICE CHICAGO/ROMEOVILLE IL
400 PM CST SAT DEC 27 2014

NOTE: "FAIR" INDICATES FEW OR NO CLOUDS BELOW 12,000 FEET WITH NO
SIGNIFICANT WEATHER AND/OR OBSTRUCTIONS TO VISIBILITY.

* THESE STATIONS ARE NOT UNDER NWS QUALITY CONTROL. THEY ALSO MAY NOT
  REPORT WEATHER SUCH AS PRECIPITATION OR FOG.

ILZ005-006-012>014-019>023-272300-
NORTHEAST ILLINOIS

CITY           SKY/WX    TMP DP  RH WIND       PRES   REMARKS
OHARE          CLOUDY    35  28  75 W17G26    30.02R WCI  25
MIDWAY         CLOUDY    38  29  70 W15G26    30.02F
AURORA         CLOUDY    35  27  72 W18       30.05F WCI  24
LANSING*       CLOUDY    37  31  78 W16G25    30.05S
JOLIET*        CLOUDY    35  28  75 W16G24    30.06F WCI  25
WAUKEGAN       CLOUDY    35  27  72 W9G20     30.00R WCI  28
DUPAGE AIRPORT CLOUDY    34  27  75 W17G26    30.03F WCI  23
WHEELING       CLOUDY    35  28  75 W15G28    30.04R WCI  25
KANKAKEE*      DRIZZLE   36  33  89 W12       30.06F
MORRIS*        CLOUDY    35  31  84 W20G25    30.06S WCI  25
LEWIS AIRPORT* CLOUDY    35  28  76 W20G25    30.05F WCI  24
NORTHERLY IS     N/A     37  29  73 W15         N/A
$$

WIZ051-052-058>065-066-070>072-272300-
SOUTHEAST WISCONSIN

CITY           SKY/WX    TMP DP  RH WIND       PRES   REMARKS
MILWAUKEE      CLOUDY    36  28  73 W20G25    29.99R
KENOSHA*       CLOUDY    36  29  75 W15G23    30.01R
RACINE*        CLOUDY    36  28  73 W18G28    30.01R
BURLINGTON     CLOUDY    32  28  83 W10G22    30.01R WCI  24
WAUKESHA       CLOUDY    32  27  80 W14G23    29.99R WCI  22
WEST BEND      CLOUDY    34  28  80 W15G23    29.97R WCI  24
$$

INZ001>003-010>013-019-020-272300-
NORTHWEST INDIANA

CITY           SKY/WX    TMP DP  RH WIND       PRES   REMARKS
GARY*          NOT AVBL
MICHIGAN CITY* NOT AVBL
RENSSELAER*    NOT AVBL
VALPARAISO     CLOUDY    37  33  85 W12       30.05R
$$

LMZ740>746-272300-
SOUTHERN LAKE MICHIGAN

STATION/POSITION TIME  SKY/WX   TEMP WIND        PRES    VSBY
                                AIR  DIR/SP/G
                 (UTC)          (F)  (DEG/KT/KT) (MB)    (MI)
HARRISON CRIB    2200            36  270/ 25/ 30   N/A
BURNHAM HARBOR   2200            37  240/ 14/ 19   N/A
CALUMET HARBOR   2200            38  240/ 14/ 19 1016.1R
BURNS HARBOR     NOT AVBL
MICHIGAN CITY    2200            38  220/ 23/ 28   N/A
$$

ABBREVIATIONS USED IN REMARKS
   TC - TEMPERATURE IN CELSIUS
  WCI - WIND CHILL INDEX
   HX - HEAT INDEX
  VSB - VISIBILITY
$$



USA.gov is the U.S. government's official web portal to all federal, state and local government web resources and services.